Theta_e
283 280 277 279 279 278 279 277 276 275 277 275 275 276 277 279 280 279 279 279 280 280 282 282 282 281 281 281 282 283 283 283 283 282 281 280 280 281 281 283 284 284 284 284
280 277 278 280 280 279 278 277 274 275 277 275 273 276 276 276 278 280 281 280 280 280 280 281 280 280 280 280 281 281 282 282 283 282 281 280 280 280 281 282 283 284 284 284
277 276 278 279 277 278 274 274 273 274 275 274 272 274 275 277 277 280 281 281 281 281 279 279 279 278 278 278 279 280 281 282 282 282 282 281 281 280 280 280 281 282 283 283
275 276 277 276 276 276 275 275 276 275 273 271 272 269 272 276 275 277 280 280 281 280 280 280 279 278 278 278 278 280 281 281 282 282 281 280 278 277 278 279 280 281 282 282
274 274 275 275 275 276 275 276 275 275 272 270 270 269 272 273 275 276 277 279 279 280 280 280 280 281 279 279 278 278 280 280 281 281 281 279 278 278 279 279 279 280 280 281
273 275 275 274 276 276 277 276 276 274 272 265 269 269 270 273 276 275 277 278 279 278 279 279 280 280 279 278 278 278 279 279 280 280 280 279 278 278 278 278 278 278 278 278
273 273 273 276 274 276 276 274 268 266 263 267 270 268 272 275 278 278 278 278 279 279 278 278 278 279 279 278 277 278 279 279 279 280 279 279 279 279 278 278 278 278 278 278
270 269 273 274 273 273 274 273 269 264 266 269 271 269 274 276 277 278 279 279 279 279 279 278 279 280 280 279 278 279 279 279 279 279 279 279 279 279 279 279 278 278 278 278
269 270 273 275 274 274 273 271 274 265 263 264 269 272 276 278 276 276 278 278 279 280 280 279 279 279 280 280 279 279 279 279 279 279 279 279 279 279 278 278 278 278 278 280
275 267 273 273 273 273 273 275 270 268 260 260 268 267 271 275 276 277 277 277 278 279 279 280 279 279 279 280 280 280 280 280 279 279 279 279 278 279 279 278 278 278 279 279
272 271 269 272 269 271 270 269 270 271 268 264 263 269 273 278 279 278 277 278 278 279 279 280 280 280 279 279 279 280 279 279 279 279 279 279 279 279 279 279 279 278 279 279
276 270 264 268 270 271 270 271 271 268 266 265 266 268 277 279 278 278 278 278 278 278 279 279 279 279 279 279 279 280 280 280 280 280 279 279 279 279 278 278 279 279 279 279
275 266 262 267 268 270 265 271 274 271 269 264 265 269 277 276 276 277 277 277 278 278 277 278 278 279 279 278 279 280 280 281 281 280 279 279 279 278 278 278 279 279 277 277
279 263 266 269 270 268 264 267 273 268 263 267 269 271 274 275 276 275 276 277 277 277 278 277 277 278 278 279 278 278 279 280 280 280 279 278 278 279 278 279 279 279 278 276
273 267 264 265 270 268 266 266 271 270 272 269 273 274 276 277 276 277 276 275 276 277 277 277 277 277 277 278 278 278 279 279 279 279 278 279 279 279 279 278 278 278 278 278
266 262 260 261 270 271 267 266 267 273 273 272 272 273 277 273 275 275 276 276 276 276 277 277 277 278 279 279 278 279 278 278 279 278 278 279 279 279 279 279 278 278 278 278
267 263 262 262 269 268 266 267 267 270 268 275 271 277 275 274 276 276 275 276 276 276 277 276 275 276 276 276 278 275 275 276 276 276 276 277 278 278 277 277 277 277 276 276
265 264 262 259 261 261 272 270 270 274 275 275 272 272 274 274 274 274 274 275 276 276 275 274 272 273 273 273 273 274 274 274 274 273 273 273 274 274 274 273 272 272 273 271
269 267 262 264 259 269 272 269 269 269 273 275 276 278 272 271 271 270 273 274 274 273 272 270 271 271 271 271 271 271 269 269 269 269 269 269 271 271 271 271 269 268 267 265
270 268 269 261 263 262 268 269 271 272 271 274 277 277 273 272 271 270 271 272 271 271 271 270 269 269 270 270 270 268 265 265 264 266 267 267 268 269 268 268 268 268 264 265
262 264 265 263 264 266 270 271 271 269 273 270 273 274 274 275 272 271 271 270 270 269 268 267 267 266 267 268 267 264 263 261 263 264 265 266 266 268 268 268 267 265 263 264
264 264 266 263 264 266 272 272 272 272 267 270 270 272 273 270 270 269 268 268 268 267 266 266 265 263 264 265 264 262 260 261 260 262 262 262 263 266 266 265 265 264 264 263
268 270 268 272 271 271 275 273 273 271 271 271 271 272 271 269 268 268 266 266 265 266 266 265 262 260 258 260 262 260 259 259 259 259 259 259 261 263 263 263 262 263 262 262
266 268 269 271 271 271 273 273 274 273 272 272 273 272 271 268 268 266 265 265 265 265 264 263 262 260 258 258 259 259 258 258 257 257 257 259 258 259 260 263 263 263 261 261
270 271 269 270 272 274 273 274 273 271 270 270 271 271 270 269 268 267 266 265 264 263 263 263 261 260 259 259 257 257 258 257 258 257 257 257 259 258 260 261 261 262 263 265
269 269 272 272 275 276 274 273 272 271 269 269 269 268 269 269 267 266 264 264 263 262 261 260 260 259 258 258 257 256 256 256 255 257 257 257 258 258 259 258 258 262 265 266
Wind_Speed
2 4 7 7 4 3 5 4 5 1 1 0 4 7 10 8 7 8 8 9 9 10 5 7 7 8 7 6 7 6 6 4 3 2 3 3 3 3 3 4 5 6 6 6
5 4 3 1 1 3 3 4 2 0 1 1 3 10 6 3 6 9 10 9 10 6 7 7 8 8 8 8 7 7 6 4 3 3 2 3 3 2 3 3 4 5 6 6
6 1 1 2 2 5 3 4 4 2 0 0 3 8 5 1 1 2 5 6 6 11 11 9 9 9 7 8 8 8 7 6 4 5 4 3 4 3 2 3 3 4 5 6
4 1 2 3 3 1 5 1 4 4 3 4 1 5 6 2 1 1 6 8 8 8 7 9 10 8 9 8 7 7 7 7 5 7 4 5 3 3 2 2 1 3 5 6
3 1 2 2 3 1 4 3 4 3 4 2 1 4 8 1 5 5 5 7 7 8 10 13 14 12 7 7 8 7 7 6 5 5 5 5 4 3 2 2 3 3 4 5
3 1 3 2 2 2 6 5 6 5 3 3 3 4 6 7 9 5 4 4 3 4 9 7 6 6 7 7 7 7 8 6 6 6 6 7 8 7 4 3 3 2 1 3
2 2 2 1 5 4 1 5 4 4 4 7 4 2 11 6 5 8 9 7 5 1 7 9 10 10 8 10 9 8 9 8 8 7 7 7 7 7 7 5 4 4 2 1
7 4 7 1 1 6 5 5 7 9 5 3 3 7 9 6 4 4 6 6 5 5 6 9 11 11 11 11 10 9 8 7 8 8 8 6 7 4 5 6 4 4 4 4
6 0 2 2 1 2 5 5 3 9 3 5 5 8 9 6 4 4 7 6 7 7 8 10 9 10 10 10 12 13 10 8 8 8 6 6 6 6 5 5 4 4 4 3
7 6 2 2 1 1 3 3 4 3 5 4 5 6 8 8 12 8 8 9 8 5 5 6 8 10 8 9 10 8 9 11 8 8 7 6 6 6 6 5 6 6 5 4
5 6 1 3 7 8 2 2 1 3 5 8 3 10 9 14 14 16 11 9 9 8 7 6 6 7 7 6 8 10 9 9 8 8 7 7 7 6 6 6 6 6 4 6
6 6 5 7 1 2 2 5 6 7 7 2 3 11 2 6 9 12 11 10 7 7 6 4 4 5 7 9 8 11 11 10 11 10 7 8 7 7 7 7 7 6 7 6
9 2 4 6 5 3 5 6 4 4 3 7 8 9 1 2 7 8 11 9 8 7 6 5 4 4 5 7 7 9 10 11 9 8 9 7 7 7 8 7 7 6 5 4
4 3 9 11 8 7 7 7 10 6 5 6 9 3 4 6 8 8 8 8 8 8 6 4 2 3 3 5 7 7 8 7 7 8 8 8 9 8 7 7 7 6 6 5
5 7 3 2 2 3 5 7 17 16 11 10 6 14 10 14 15 13 10 8 8 7 6 5 3 3 2 3 4 7 6 6 7 6 6 9 7 6 6 6 6 6 6 5
0 3 3 3 1 2 4 4 8 15 6 12 5 13 6 3 7 8 11 10 9 8 7 4 2 3 4 4 1 3 5 6 6 7 6 3 4 4 5 5 5 4 4 4
8 8 5 6 1 2 10 14 15 9 6 13 14 20 7 5 9 12 11 11 9 8 6 5 5 5 5 6 6 7 7 7 8 9 7 7 4 4 4 4 3 4 4 4
8 7 3 4 2 4 7 3 6 17 9 18 6 5 5 6 4 6 3 8 8 8 8 7 5 5 7 6 9 9 10 11 10 10 9 9 8 7 6 7 6 5 4 3
1 5 3 7 6 9 9 8 11 12 16 21 25 18 4 5 5 4 2 3 6 8 8 7 6 6 7 9 9 12 12 11 11 10 10 8 7 6 6 6 5 3 3 3
1 3 4 4 8 14 6 3 6 6 15 12 26 18 12 9 7 5 6 9 11 10 8 9 8 9 10 9 9 12 11 10 10 8 7 6 6 6 5 4 4 2 2 3
4 1 8 3 5 11 7 6 3 8 9 0 4 7 16 12 3 12 14 11 9 10 11 10 10 10 9 8 9 12 10 10 7 5 6 6 6 4 5 5 3 3 3 4
12 11 7 3 1 16 9 7 12 6 1 3 3 3 8 13 14 15 14 13 12 12 11 10 10 10 9 8 9 10 10 6 5 5 6 6 6 6 5 5 5 4 4 4
6 9 10 12 9 1 13 3 3 3 5 3 5 6 15 17 14 13 12 11 9 10 11 10 10 10 7 8 7 9 6 6 6 6 6 5 6 7 7 5 5 4 4 4
6 3 4 3 2 2 6 2 3 2 4 6 10 13 14 18 15 16 13 11 10 9 9 9 10 9 8 7 9 8 6 5 5 5 5 4 4 5 4 4 5 5 5 6
4 9 7 3 0 4 2 2 7 10 9 12 11 11 15 17 14 14 13 11 10 10 9 8 8 8 8 6 7 6 7 6 5 3 3 4 4 5 5 5 5 5 4 7
6 8 7 6 8 3 2 12 12 12 11 10 16 14 11 13 15 15 12 10 9 9 9 8 8 8 7 6 7 7 6 6 5 4 4 4 4 4 5 5 6 10 12 15
Wind_Direction
16 111 201 197 184 148 152 151 134 246 236 199 236 278 276 242 207 222 219 209 207 212 193 169 166 152 148 153 147 152 152 154 127 117 102 73 79 51 43 43 39 37 31 33
46 216 168 314 203 139 126 131 120 339 260 155 359 290 281 209 215 198 199 212 211 180 163 172 171 169 170 163 165 162 170 155 141 136 143 135 133 89 89 59 46 43 42 35
163 149 311 176 63 118 41 154 175 146 115 108 336 316 338 323 195 196 210 203 195 195 180 180 182 185 176 176 176 174 170 158 149 133 108 77 78 67 50 28 39 35 48 43
98 286 179 110 106 97 156 171 110 106 97 213 42 240 295 270 339 327 207 211 212 197 163 177 182 188 187 194 178 167 161 161 160 152 131 148 159 145 195 149 132 70 59 54
195 81 151 132 133 303 156 143 109 91 96 36 273 95 260 94 236 223 220 223 229 211 184 180 191 194 187 174 179 173 164 168 164 167 159 152 147 138 141 107 116 91 56 62
104 72 42 103 92 36 146 83 52 57 70 24 228 144 260 191 202 200 177 170 155 161 196 188 182 160 181 178 174 172 168 181 179 169 166 156 152 151 141 144 130 120 72 43
19 354 342 149 92 18 95 100 32 4 6 217 329 92 240 228 204 180 188 211 218 210 172 170 172 181 183 188 186 180 175 184 182 179 175 171 165 158 167 163 164 165 162 178
149 252 175 152 204 177 183 157 158 191 188 210 348 230 253 219 147 143 170 182 168 164 176 185 190 188 192 190 187 187 183 182 181 182 185 181 169 178 171 175 166 174 181 169
134 40 357 39 359 81 193 205 153 105 32 59 215 283 304 172 180 170 178 175 183 182 176 186 191 194 191 188 192 190 181 188 187 189 183 180 179 174 172 190 172 175 167 180
196 91 8 1 310 232 160 198 100 353 126 245 273 277 235 209 204 199 196 200 205 202 199 194 199 194 192 194 193 182 186 188 188 186 181 188 189 187 177 176 192 189 189 193
128 108 242 43 209 180 156 217 30 120 136 161 181 256 216 204 187 187 197 199 198 201 211 208 212 206 193 175 177 187 183 180 186 186 186 183 187 194 194 191 202 195 194 198
192 117 150 216 287 330 191 216 179 132 224 220 154 271 231 234 196 167 185 193 198 195 204 234 237 213 193 191 181 190 192 189 195 192 186 192 188 187 193 205 210 198 207 203
188 255 77 352 348 354 220 200 194 123 88 201 137 256 38 69 151 181 174 190 191 197 223 243 252 228 214 209 198 195 197 201 197 178 184 188 195 192 200 205 212 207 209 203
124 114 163 189 195 133 190 198 182 138 131 169 225 240 218 213 188 189 194 194 191 201 208 210 238 246 244 219 198 197 204 203 186 179 187 197 192 202 200 204 207 206 210 202
149 198 143 269 186 108 182 177 185 201 194 174 208 219 208 210 197 192 188 177 185 186 182 193 203 251 271 246 208 194 197 186 179 185 185 205 203 193 204 212 206 215 210 212
286 204 108 318 331 72 288 205 211 224 244 267 283 263 205 218 141 167 188 172 179 180 176 161 94 47 15 351 345 195 181 177 163 177 209 207 198 206 208 219 221 209 221 225
149 136 110 251 8 96 299 199 190 199 205 208 214 238 158 196 196 187 178 173 167 166 152 108 79 55 44 24 49 50 59 64 69 73 51 40 37 53 44 36 57 49 46 36
146 121 103 165 35 237 243 124 184 208 208 213 264 238 202 188 109 105 132 155 151 133 114 94 76 62 47 48 61 69 61 64 69 64 55 45 40 40 38 53 41 27 35 31
40 133 118 149 200 304 247 195 159 169 247 210 221 222 156 116 76 342 15 89 116 114 110 100 78 61 61 58 64 72 62 58 56 45 51 34 28 41 34 36 24 13 11 357
54 44 121 144 174 208 248 199 140 114 273 204 205 210 151 147 177 212 137 115 106 103 102 98 78 63 59 52 71 79 66 61 51 37 28 27 26 30 33 23 8 343 333 295
128 82 205 179 222 280 204 172 158 133 250 128 174 158 158 190 210 129 121 106 103 105 98 83 71 67 49 61 74 75 67 53 29 19 25 20 21 24 18 3 358 331 324 329
158 152 188 103 147 260 159 100 174 199 3 125 89 132 125 115 115 115 114 112 111 106 98 90 85 69 49 49 75 71 59 31 23 28 38 24 17 21 10 5 357 341 348 340
204 185 175 193 207 294 183 35 108 131 132 156 123 130 132 129 128 122 119 108 99 104 104 96 94 83 46 49 57 74 39 21 26 40 33 16 16 18 6 5 350 352 350 347
254 183 173 133 222 221 178 49 69 72 100 94 109 121 130 128 129 120 116 114 103 100 102 106 101 87 75 56 61 66 46 28 40 43 27 9 17 3 360 359 358 345 349 338
188 148 159 258 290 102 153 170 130 102 97 93 80 108 124 121 122 124 122 118 115 110 101 103 106 103 96 85 67 45 36 19 30 33 15 9 7 0 357 360 341 342 319 309
185 171 184 208 181 139 151 140 140 124 114 110 110 97 96 115 120 118 111 110 111 112 110 101 102 103 91 83 72 50 28 28 21 32 20 8 356 352 354 343 330 333 331 330